GW0143 Weather Reports


time (UTC)temp
C
wind
direction
speed
KPH
gust
KPH
rain 1hr
cm
rain 24hr
cm
rain mn
cm
humidity
%
barometer
mb
20260906183020 26 181 20.9 32.2 0.00 0.00 0.00 20 1026.6
20260906182020 26 180 22.5 38.6 0.00 0.00 0.00 21 1026.8
20260906181017 25 178 22.5 32.2 0.00 0.00 0.00 21 1027.0
20260906180017 25 184 20.9 33.8 0.00 0.00 0.00 22 1027.1
20260906175016 25 178 20.9 27.4 0.00 0.00 0.00 23 1027.2
20260906174018 25 179 11.3 19.3 0.00 0.00 0.00 24 1027.4
20260906173038 25 180 17.7 25.7 0.00 0.00 0.00 25 1027.5
20260906172018 25 208 11.3 20.9 0.00 0.00 0.00 28 1027.6
20260906171017 25 224 11.3 17.7 0.00 0.00 0.00 27 1027.6
20260906170017 25 210 14.5 25.7 0.00 0.00 0.00 28 1027.6
20260906165019 24 184 20.9 30.6 0.00 0.00 0.00 29 1027.6
20260906164017 23 191 19.3 25.7 0.00 0.00 0.00 31 1027.7
20260906163017 23 191 16.1 25.7 0.00 0.00 0.00 31 1027.7
20260906162017 23 193 17.7 24.1 0.00 0.00 0.00 32 1027.8
20260906161017 23 208 16.1 24.1 0.00 0.00 0.00 33 1027.8
20260906160018 22 194 14.5 19.3 0.00 0.00 0.00 35 1027.8
20260906155018 22 199 11.3 17.7 0.00 0.00 0.00 36 1027.7
20260906154020 21 174 11.3 16.1 0.00 0.00 0.00 37 1027.7
20260906153018 21 187 8.0 16.1 0.00 0.00 0.00 39 1027.7
20260906152019 20 181 8.0 12.9 0.00 0.00 0.00 41 1027.7
20260906151020 19 142 9.7 12.9 0.00 0.00 0.00 47 1027.8
20260906150020 19 183 4.8 9.7 0.00 0.00 0.00 44 1028.0
20260906145020 18 193 4.8 6.4 0.00 0.00 0.00 45 1028.0
20260906144040 18 187 3.2 4.8 0.00 0.00 0.00 47 1028.1
20260906143040 17 171 6.4 8.0 0.00 0.00 0.00 49 1028.1
20260906142100 16 168 6.4 11.3 0.00 0.00 0.00 51 1028.2
20260906141020 15 159 6.4 8.0 0.00 0.00 0.00 55 1028.2
20260906140020 14 172 6.4 9.7 0.00 0.00 0.00 58 1028.2
20260906135020 13 175 4.8 6.4 0.00 0.00 0.00 60 1028.1
20260906134020 12 157 3.2 4.8 0.00 0.00 0.00 62 1028.1
20260906133021 11 181 3.2 6.4 0.00 0.00 0.00 64 1028.1
20260906132022 10 149 3.2 8.0 0.00 0.00 0.00 69 1028.0
20260906131022 9 161 4.8 6.4 0.00 0.00 0.00 72 1028.0
20260906130021 8 202 4.8 8.0 0.00 0.00 0.00 76 1028.0
20260906125021 8 113 3.2 4.8 0.00 0.00 0.00 76 1027.9
20260906124022 8 106 1.6 3.2 0.00 0.00 0.00 75 1028.0
20260906123042 7 191 4.8 8.0 0.00 0.00 0.00 76 1027.9
20260906122018 7 158 4.8 8.0 0.00 0.00 0.00 77 1027.9
20260906121018 8 149 6.4 9.7 0.00 0.00 0.00 73 1028.0
20260906120042 8 120 3.2 4.8 0.00 0.00 0.00 73 1027.9
20260906115023 10 162 4.8 8.0 0.00 0.00 0.00 69 1027.9
20260906114023 10 90 1.6 3.2 0.00 0.00 0.00 69 1027.8
20260906113019 9 158 6.4 14.5 0.00 0.00 0.00 69 1027.7
20260906112023 9 155 6.4 8.0 0.00 0.00 0.00 72 1027.6
20260906111019 9 157 6.4 11.3 0.00 0.00 0.00 72 1027.6
20260906110024 10 165 3.2 8.0 0.00 0.00 0.00 70 1027.5
20260906105024 10 194 3.2 6.4 0.00 0.00 0.00 71 1027.4
20260906104024 10 333 0.0 1.6 0.00 0.00 0.00 72 1027.4
20260906103024 10 114 1.6 3.2 0.00 0.00 0.00 72 1027.4
20260906102024 11 234 3.2 6.4 0.00 0.00 0.00 69 1027.3
20260906101021 11 157 6.4 9.7 0.00 0.00 0.00 69 1027.3
20260906100020 11 146 6.4 9.7 0.00 0.00 0.00 70 1027.3
20260906095021 11 152 8.0 12.9 0.00 0.00 0.00 68 1027.2
20260906094041 12 150 8.0 11.3 0.00 0.00 0.00 65 1027.2
20260906093021 13 141 8.0 11.3 0.00 0.00 0.00 61 1027.3
20260906092025 13 118 3.2 6.4 0.00 0.00 0.00 61 1027.2
20260906091025 14 206 1.6 3.2 0.00 0.00 0.00 57 1027.2
20260906090022 13 264 4.8 9.7 0.00 0.00 0.00 60 1027.1
20260906085021 15 155 11.3 14.5 0.00 0.00 0.00 56 1026.8
20260906084021 15 154 12.9 16.1 0.00 0.00 0.00 55 1026.8
20260906083022 15 153 11.3 14.5 0.00 0.00 0.00 56 1026.9
20260906082042 15 153 11.3 14.5 0.00 0.00 0.00 55 1026.9
20260906081056 15 153 12.9 16.1 0.00 0.00 0.00 54 1026.9
20260906075511 -17 159 14.5 14.5 0.00 0.00 0.00
20260906073605 -17 155 14.5 14.5 0.00 0.00 0.00
20260906072536 -17 156 11.3 14.5 0.00 0.00 0.00
20260906071517 14 161 9.7 14.5 0.00 0.00 0.00 58 1026.9
20260906070538 14 165 9.7 12.9 0.00 0.00 0.00 57 1026.8
20260906065518 13 166 8.0 14.5 0.00 0.00 0.00 59 1026.9
20260906064518 13 141 6.4 9.7 0.00 0.00 0.00 60 1027.0
20260906063528 12 124 3.2 6.4 0.00 0.00 0.00 65 1027.0
20260906062518 13 145 6.4 8.0 0.00 0.00 0.00 63 1027.0
20260906061518 13 165 4.8 8.0 0.00 0.00 0.00 64 1027.0
20260906060529 14 179 3.2 4.8 0.00 0.00 0.00 60 1027.0
20260906055539 15 139 4.8 12.9 0.00 0.00 0.00 55 1026.8
20260906054519 14 148 8.0 14.5 0.00 0.00 0.00 59 1026.9
20260906053519 15 190 6.4 9.7 0.00 0.00 0.00 58 1027.0
20260906052520 15 190 6.4 9.7 0.00 0.00 0.00 59 1027.1
20260906051519 15 143 6.4 8.0 0.00 0.00 0.00 57 1027.2
20260906050526 15 150 6.4 11.3 0.00 0.00 0.00 58 1027.2
20260906045520 15 151 8.0 9.7 0.00 0.00 0.00 56 1027.2
20260906044541 15 142 6.4 9.7 0.00 0.00 0.00 59 1027.2
20260906043517 16 144 6.4 8.0 0.00 0.00 0.00 56 1027.3
20260906042517 16 135 4.8 6.4 0.00 0.00 0.00 54 1027.5
20260906041518 16 117 1.6 3.2 0.00 0.00 0.00 53 1027.4
20260906040538 16 130 3.2 4.8 0.00 0.00 0.00 53 1027.4
20260906035601 17 4 6.4 11.3 0.00 0.00 0.00 53 1027.4
20260906034521 17 155 8.0 9.7 0.00 0.00 0.00 51 1027.2
20260906033522 17 152 11.3 12.9 0.00 0.00 0.00 50 1027.0
20260906032522 17 159 8.0 12.9 0.00 0.00 0.00 51 1027.0
20260906031542 17 140 6.4 8.0 0.00 0.00 0.00 50 1027.0
20260906030519 18 141 6.4 8.0 0.00 0.00 0.00 49 1026.9
20260906025519 18 122 4.8 8.0 0.00 0.00 0.00 48 1026.8
20260906024600 18 135 4.8 8.0 0.00 0.00 0.00 48 1026.7
20260906023520 18 137 4.8 6.4 0.00 0.00 0.00 49 1026.4
20260906022600 19 144 4.8 6.4 0.00 0.00 0.00 48 1026.3
20260906021523 19 176 6.4 9.7 0.00 0.00 0.00 45 1026.2
20260906020537 20 178 6.4 9.7 0.00 0.00 0.00 44 1026.0
20260906015517 20 201 6.4 8.0 0.00 0.00 0.00 43 1026.0
20260906014518 21 208 8.0 11.3 0.00 0.00 0.00 42 1025.9
20260906013524 21 209 6.4 9.7 0.00 0.00 0.00 41 1025.9
20260906012544 22 185 6.4 8.0 0.00 0.05 0.00 40 1025.8
20260906011518 22 173 8.0 11.3 0.00 0.05 0.00 39 1025.6
20260906010518 22 179 11.3 16.1 0.00 0.08 0.00 38 1025.6
20260906005518 23 181 11.3 16.1 0.00 0.08 0.00 37 1025.5
20260906004519 23 177 9.7 16.1 0.00 0.08 0.00 36 1025.5
20260906003519 24 171 12.9 16.1 0.00 0.08 0.00 35 1025.5
20260906002519 23 180 14.5 22.5 0.00 0.08 0.00 35 1025.4
20260906001519 24 179 14.5 19.3 0.00 0.08 0.00 35 1025.2
20260906000520 25 173 20.9 29.0 0.00 0.08 0.00 33 1025.1
20260905235520 25 168 17.7 27.4 0.00 0.08 0.00 32 1025.1
20260905234520 25 176 20.9 29.0 0.00 0.08 0.00 32 1025.0
20260905233520 26 186 17.7 29.0 0.00 0.08 0.00 30 1025.1
20260905232520 26 167 11.3 20.9 0.00 0.08 0.00 28 1025.0
20260905231517 26 191 11.3 22.5 0.00 0.08 0.00 30 1025.0
20260905230517 26 106 12.9 27.4 0.00 0.08 0.00 30 1025.1
20260905225520 26 55 16.1 25.7 0.00 0.08 0.00 32 1025.1
20260905224518 25 57 17.7 25.7 0.00 0.08 0.00 32 1025.2
20260905223518 25 47 25.7 33.8 0.00 0.08 0.00 33 1025.1
20260905222538 25 46 19.3 27.4 0.00 0.08 0.00 34 1025.1
20260905221518 26 151 8.0 16.1 0.00 0.08 0.00 22 1025.2
20260905220519 26 164 11.3 16.1 0.00 0.08 0.00 24 1025.2
20260905215519 26 173 12.9 17.7 0.00 0.08 0.00 24 1025.3
20260905214519 26 222 9.7 17.7 0.00 0.08 0.00 24 1025.4
20260905213522 27 155 6.4 12.9 0.00 0.08 0.00 26 1025.5
20260905212522 27 182 8.0 16.1 0.00 0.08 0.00 25 1025.6
20260905211519 26 189 12.9 20.9 0.00 0.08 0.00 27 1025.7
20260905210520 26 171 11.3 24.1 0.00 0.08 0.00 28 1025.7
20260905205520 27 199 12.9 25.7 0.00 0.08 0.00 27 1025.8
20260905204520 27 167 9.7 20.9 0.00 0.08 0.00 26 1025.8
20260905203518 26 171 12.9 22.5 0.00 0.08 0.00 28 1025.9
20260905202518 27 131 9.7 20.9 0.00 0.08 0.00 27 1026.1
20260905201521 26 172 12.9 22.5 0.00 0.08 0.00 28 1026.2
20260905200518 26 138 8.0 19.3 0.00 0.08 0.00 29 1026.3
20260905195538 27 184 16.1 24.1 0.00 0.08 0.00 28 1026.3
20260905194518 27 278 8.0 17.7 0.00 0.08 0.00 27 1026.5
20260905193518 26 124 6.4 12.9 0.00 0.08 0.00 29 1026.6
20260905192519 26 166 14.5 24.1 0.00 0.08 0.00 29 1026.7
20260905191518 26 150 4.8 11.3 0.00 0.08 0.00 30 1026.8
20260905190519 25 203 12.9 22.5 0.00 0.08 0.00 31 1026.9
20260905185519 26 183 11.3 19.3 0.00 0.08 0.00 31 1027.0
20260905184519 25 280 4.8 9.7 0.00 0.08 0.00 31 1027.1
20260905183600 25 293 6.4 14.5 0.00 0.08 0.00 31 1027.3